Location: Observatory
(52.1446°N, 0.4624°W)
Time: 21:57:54
(UTC+01:00)

ISS - Pass Details

Date: 24 May 2018
Orbit: 402 x 408 km, 51.6° (Epoch: 20 September)

Event Time Altitude Azimuth Distance (km) Brightness Sun altitude
Rises 23:18:00 0° 262° (W) 2,320 0.2 -13.7°
Reaches altitude 10° 23:20:05 10° 262° (W) 1,460 -0.8 -13.9°
Maximum altitude 23:23:21 81° 176° (S) 413 -4.0 -14.1°
Drops below altitude 10° 23:26:38 10° 88° (E) 1,460 -1.2 -14.2°
Enters shadow 23:28:10 - 87° (E) 2,097 -0.4 -14.3°
